User: anonymous   Login
Location: Feydey
(46.3431°N, 7.0106°E)
Time: 19:41:14
(UTC+00:00)
Language:

Cosmos 1844 Rocket - Orbit

View from above orbital plane
View from above orbital plane
View from above satellite
View from above satellite

Ground track
Ground track

The orbit data is extracted from the following two-line orbital elements,

1 17974U 87041B   21268.14828684  .00000014  00000-0  30401-4 0  9995
2 17974  71.0060 220.9371 0013640 179.4656 269.0212 14.17275633777608
Epoch (UTC): 25 September 2021 03:33:31
Eccentricity: 0.0013640
inclination: 71.0060°
perigee height: 825 km
apogee height: 844 km
right ascension of ascending node: 220.9371°
argument of perigee: 179.4656°
revolutions per day: 14.17275633
mean anomaly at epoch: 269.0212°
orbit number at epoch: 77760

The dashed part of the orbit path shows where the satellite is in the earth's shadow,  

DLR